Location: Tr�vern
(48.0333°N, 4.6000°W)
Time: 19:10:50
(UTC+00:00)

Cosmos 724 - Pass Details

Date: 14 July 2020
Orbit: 859 x 936 km, 65.6° (Epoch: 11 August)

Event Time Altitude Azimuth Distance (km) Brightness Sun altitude
Exits shadow 00:59:22 38° 192° (SSW) 1,293 4.6 -19.9°
Maximum altitude 01:01:35 68° 122° (ESE) 927 4.3 -19.8°
Drops below altitude 10° 01:07:22 10° 41° (NE) 2,526 7.5 -19.7°
Sets 01:09:53 0° 39° (NE) 3,477 8.5 -19.6°
